User: anonymous   Login
Location: Unspecified
(0.0000°N, 0.0000°E)
Time: 16:15:43
(UTC+00:00)
Language:

Amsat-Oscar-6 - Orbit

View from above orbital plane
View from above orbital plane
View from above satellite
View from above satellite

Ground track
Ground track

The orbit data is extracted from the following two-line orbital elements,

1  6236U 72082B   18344.84039157 -.00000045  00000-0  43943-6 0  9992
2  6236 101.7954 309.2928 0004334 359.2447  30.2826 12.53147030111254
Epoch (UTC): 10 December 2018 20:10:09
Eccentricity: 0.0004334
inclination: 101.7954°
perigee height: 1448 km
apogee height: 1455 km
right ascension of ascending node: 309.2928°
argument of perigee: 359.2447°
revolutions per day: 12.53147030
mean anomaly at epoch: 30.2826°
orbit number at epoch: 11125

The dashed part of the orbit path shows where the satellite is in the earth's shadow,  

DLR